Flag for India Weather past 2 weeks in Jalandhar, Punjab, India

Now
81 °F

Passing clouds.


Feels Like: 81 °F
Forecast: 79 / 106 °F
Wind: No wind

Location: Amritsar Airport

Current Time: May 31, 2015 at 5:10:18 AM

Latest Report: May 31, 2015 at 4:30 AM


Visibility: 2 mi

Pressure: 29.59 "Hg

Humidity: 48%

Dew point: 59 °F

Location of JalandharLocation

Historic Weather in Jalandhar — Graph

°F

Jalandhar temperature yesterday

Maximum temperature yesterday: 106 °F (at 3:30 PM)
Minimum temperature yesterday: 81 °F (at 3:30 AM)
Average temperature yesterday: 94 °F

Past Weeks' High & Low Weather Summary

 TemperatureHumidityPressure
High109 °F (May 23, 2:30 PM)83% (May 16, 5:30 AM)29.77 "Hg (May 16, 5:30 AM)
Low73 °F (May 16, 5:30 AM)7% (May 27, 4:00 PM)29.42 "Hg (May 23, 4:00 PM)
Average91 °F34%29.59 "Hg
* Reported May 16 4:00 AM — May 31 3:30 AM, Jalandhar, Weather by CustomWeather, © 2015

Note: Actual official high and low records may vary slightly from our data, if they occured in-between our weather recording intervals... More about our weather records

Advertising

Jalandhar weather history for previous 24 hours

 ConditionsComfort  
Time TempWeatherWind HumidityBarometerVisibility
3:30 AM
Sun, May 31
81 °FPassing clouds.No wind58%29.59 "Hg2 mi
3:00 AM79 °FPassing clouds.No wind51%29.62 "Hg2 mi
1:00 AM84 °FDuststorm.No wind40%29.62 "Hg2 mi
12:00 AM86 °FPassing clouds.7 mph35%29.65 "Hg2 mi
11:30 PM
Sat, May 30
88 °FPassing clouds.2 mph33%29.65 "Hg2 mi
11:00 PM86 °FDuststorm.No wind38%29.65 "Hg2 mi
7:30 PM99 °FPassing clouds.1 mph22%29.62 "Hg3 mi
7:00 PM100 °FDuststorm.7 mph20%29.62 "Hg3 mi
6:00 PM104 °FPassing clouds.10 mph16%29.59 "Hg3 mi
5:30 PM104 °FPassing clouds.9 mph16%29.59 "Hg3 mi
5:00 PM106 °FPassing clouds.10 mph15%29.62 "Hg3 mi
4:00 PM106 °FPassing clouds.9 mph15%29.62 "Hg3 mi
3:30 PM106 °FPassing clouds.5 mph17%29.62 "Hg3 mi
2:30 PM104 °FDuststorm.6 mph17%29.65 "Hg3 mi
1:30 PM104 °FDuststorm.3 mph19%29.68 "Hg3 mi
12:30 PM104 °FDuststorm.3 mph16%29.68 "Hg3 mi
11:30 AM100 °FDuststorm.6 mph20%29.71 "Hg3 mi
11:00 AM100 °FDuststorm.1 mph22%29.71 "Hg3 mi
10:00 AM97 °FDuststorm.2 mph27%29.71 "Hg3 mi
9:00 AM91 °FDuststorm.8 mph32%29.71 "Hg3 mi
8:30 AM90 °FDuststorm.5 mph33%29.71 "Hg3 mi
6:30 AM81 °FHaze.No wind48%29.68 "Hg2 mi
5:30 AM81 °FHaze.1 mph45%29.68 "Hg2 mi
Weather by CustomWeather, © 2015

See weather overviewHow to use our weather pages